TimeCST,TemperatureF,Dew PointF,Humidity,Sea Level PressureIn,VisibilityMPH,Wind Direction,Wind SpeedMPH,Gust SpeedMPH,PrecipitationIn,Events,Conditions,WindDirDegrees,DateUTC
12:16 AM,77.0,71.6,83,29.79,10.0,South,5.8,-,N/A,,Overcast,170,2013-11-17 06:16:00
12:53 AM,77.0,71.1,82,29.75,10.0,South,6.9,-,N/A,,Overcast,170,2013-11-17 06:53:00
1:53 AM,77.0,71.1,82,29.76,10.0,South,6.9,-,N/A,,Overcast,170,2013-11-17 07:53:00
2:53 AM,75.9,71.1,85,29.76,10.0,SSE,4.6,-,N/A,,Overcast,160,2013-11-17 08:53:00
3:53 AM,75.9,71.1,85,29.76,10.0,SSE,3.5,-,N/A,,Overcast,160,2013-11-17 09:53:00
4:53 AM,75.0,70.0,84,29.76,10.0,SSE,4.6,-,N/A,,Overcast,160,2013-11-17 10:53:00
5:53 AM,75.0,70.0,84,29.78,10.0,SSE,4.6,-,N/A,,Overcast,150,2013-11-17 11:53:00
6:53 AM,73.9,70.0,87,29.80,10.0,South,4.6,-,N/A,,Overcast,170,2013-11-17 12:53:00
7:36 AM,73.4,69.8,88,29.84,10.0,SSE,3.5,-,N/A,,Overcast,150,2013-11-17 13:36:00
7:53 AM,73.9,70.0,87,29.82,10.0,South,4.6,-,N/A,,Overcast,170,2013-11-17 13:53:00
8:23 AM,73.4,69.8,88,29.86,10.0,South,5.8,-,N/A,,Mostly Cloudy,170,2013-11-17 14:23:00
8:53 AM,75.0,70.0,84,29.84,10.0,South,3.5,-,N/A,,Overcast,180,2013-11-17 14:53:00
9:21 AM,75.2,69.8,83,29.87,10.0,South,5.8,-,N/A,,Overcast,180,2013-11-17 15:21:00
9:53 AM,77.0,68.0,74,29.85,10.0,South,4.6,-,N/A,,Mostly Cloudy,180,2013-11-17 15:53:00
10:29 AM,78.8,69.8,74,29.89,10.0,SW,5.8,-,N/A,,Overcast,220,2013-11-17 16:29:00
10:53 AM,80.1,68.0,67,29.86,10.0,SW,6.9,-,N/A,,Overcast,230,2013-11-17 16:53:00
11:18 AM,78.8,68.0,69,29.88,10.0,Calm,Calm,-,N/A,,Partly Cloudy,0,2013-11-17 17:18:00
11:53 AM,82.0,68.0,62,29.84,10.0,Calm,Calm,-,N/A,,Partly Cloudy,0,2013-11-17 17:53:00
12:53 PM,84.9,68.0,57,29.81,9.0,Variable,3.5,-,N/A,,Clear,0,2013-11-17 18:53:00
1:53 PM,88.0,66.9,49,29.78,10.0,NNW,4.6,-,N/A,,Clear,330,2013-11-17 19:53:00
2:53 PM,89.1,66.0,46,29.77,10.0,Calm,Calm,-,N/A,,Clear,0,2013-11-17 20:53:00
3:53 PM,90.0,64.0,42,29.78,10.0,Calm,Calm,-,N/A,,Clear,0,2013-11-17 21:53:00
4:53 PM,88.0,64.9,46,29.79,10.0,SSE,5.8,-,N/A,,Clear,160,2013-11-17 22:53:00
5:53 PM,82.9,66.0,56,29.81,10.0,ESE,5.8,-,N/A,,Clear,120,2013-11-17 23:53:00
6:53 PM,81.0,66.0,60,29.84,10.0,ESE,4.6,-,N/A,,Clear,120,2013-11-18 00:53:00
7:53 PM,75.0,66.0,73,29.86,10.0,Calm,Calm,-,N/A,,Clear,0,2013-11-18 01:53:00
8:53 PM,73.9,66.0,76,29.88,10.0,Calm,Calm,-,N/A,,Clear,0,2013-11-18 02:53:00
9:53 PM,73.0,66.0,79,29.89,10.0,Calm,Calm,-,N/A,,Clear,0,2013-11-18 03:53:00
10:53 PM,73.0,66.0,79,29.90,10.0,Calm,Calm,-,N/A,,Mostly Cloudy,0,2013-11-18 04:53:00
11:53 PM,73.0,66.0,79,29.91,10.0,Calm,Calm,-,N/A,,Mostly Cloudy,0,2013-11-18 05:53:00